www.pogodaiklimat.ru

Погода и климат >> Архив погоды >> Россия >> Нижегородская область >> Лукоянов


ПОГОДА в Лукоянове

  • Прогноз погоды в Лукоянове
  • Монитор погоды в Лукоянове
  • Климат города

АРХИВ ПОГОДЫ в Лукоянове

Время (UTC), дата Ветер
(напр.,м/с)
 
Видим.   Явления Облачность Т
(С)
Тd
(С)
f
(%)
Тe
(С)
Тes
(С)
Комфортность P
(гПа)
Po
(гПа)
Тmin
(С)
Tmax
(С)
R
(мм)
R24
(мм)
S
(см)
03 14.10 штиль 0
{3}
4000 м дымка 10/10 300 м
[St]
+6.9 +6.7 99 +6 +6 1023.9 997.1 +6.8 0.4
06 14.10 штиль 0
{3}
500 м туман ?/? +7.0 +7.0 100 +6 +6 1025.2 998.3
09 14.10 штиль 0
{2}
10 км {туман} 10/10 600 м
[Cb cap]
+8.6 +6.4 86 +8 +8 1024.8 998.1
12 14.10 ЮВ 1-2
{2}
10 км {туман} 10/0
[Ac und]
+8.8 +5.5 80 +8 +9 1024.2 997.5
15 14.10 З 1-2
{2}
10 км слабый ливневой дождь 10/10 600 м
[Cb cap]
+8.0 +6.5 90 +7 +7 1024.0 997.3 +9.3 0.3
18 14.10 ЮЗ 1-2
{2}
10 км слабый ливневой дождь 10/10 600 м
[Cb cap]
+7.4 +7.3 99 +6 +6 1022.9 996.1
21 14.10 З 2-3
{5}
4000 м слабый дождь {ливн. осадки} 10/10 300 м
[Frnb Ns]
+7.8 +7.4 97 +6 +6 1021.9 995.2
00 15.10 З 1-2
{3}
4000 м дымка {ливн. осадки, дождь} 10/10 300 м
[Frnb Ns]
+8.4 +8.0 97 +7 +7 1021.8 995.2
03 15.10 З 2-4
{4}
4000 м слабая морось {туман} 10/10 200 м
[St]
+9.8 +9.4 97 +8 +8 1022.1 995.6 +7.4 2
06 15.10 З 2-4
{5}
4000 м в посл. час морось {туман} 10/10 200 м
[St]
+10.5 +10.3 99 +9 +9 1022.1 995.7
09 15.10 З 2-4
{6}
4000 м дымка 10/10 200 м
[St]
+11.9 +11.3 96 +11 +11 1022.8 996.5
12 15.10 СЗ 2-5
{6}
10 км ясно +17.1 +11.8 71 +17 +19 1022.3 996.5
15 15.10 З 2-4
{5}
10 км ясно +15.4 +9.2 67 +15 +15 1023.2 997.2 +17.1 0.0
18 15.10 З 2-3
{4}
10 км ясно +10.6 +8.1 85 +9 +9 1024.2 997.7
21 15.10 З 1-2
{5}
10 км ясно +9.1 +7.1 87 +8 +8 1024.3 997.7
00 16.10 З 3-5
{7}
10 км ясно +7.8 +6.7 93 +5 +5 1024.8 998.0
03 16.10 З 2-2
{6}
500 м туман ?/? +5.6 +5.6 100 +3 +3 1025.2 998.2 +5.6
06 16.10 З 2-4
{4}
4000 м в посл. час туман 3/0
[Ci fib]
+7.4 +7.1 98 +5 +6 1025.1 998.2 +5.2
09 16.10 З 3-6
{7}
20 км 6/0
[Ci fib]
+16.0 +8.4 61 +16 +18 1023.7 997.7
12 16.10 З 4-7
{8}
20 км 8/0
[Ci fib]
+17.8 +5.8 45 +18 +18 1023.0 997.2
15 16.10 З 2-4
{7}
10 км 4/0
[Ci fib]
+12.0 +4.5 60 +11 +11 1023.0 996.7 +18.1
18 16.10 З 2-4
{5}
10 км ясно +8.9 +3.8 70 +7 +7 1022.7 996.1
21 16.10 З 2-4
{5}
10 км ясно +7.6 +3.6 76 +6 +6 1021.7 995.0
00 17.10 ЮЗ 1-3
{4}
10 км ясно +5.7 +2.5 80 +5 +5 1021.1 994.2
03 17.10 З 2-4
{5}
10 км ясно +5.1 +3.2 88 +2 +2 1021.2 994.2 +3.1
06 17.10 СЗ 2-6
{6}
20 км ясно +8.0 +4.3 77 +6 +7 1021.8 995.1
09 17.10 З 3-6
{9}
20 км 10/10 600 м
[Sc]
+11.7 +6.2 69 +10 +10 1022.8 996.5
12 17.10 З 3-5
{8}
20 км 1/1 1000 м
[Cu hum]
+13.6 +6.2 61 +13 +14 1023.3 997.2
15 17.10 СЗ 2-2
{6}
10 км ясно +9.2 +4.5 72 +8 +8 1025.2 998.5 +13.9
18 17.10 С 2-2
{3}
10 км ясно +7.1 +3.2 76 +5 +5 1026.3 999.5
21 17.10 В 1-1
{3}
10 км ясно +3.6 +2.6 93 +2 +2 1027.1 999.9
00 18.10 ЮВ 1-1
{1}
10 км ясно +2.3 +1.8 96 0 0 1027.4 1000.0
03 18.10 Ю 1-2
{2}
10 км ясно +2.7 +2.2 97 +1 +1 1027.0 999.7 +2.0
06 18.10 ЮЗ 1-2
{3}
20 км ясно +6.6 +4.3 85 +6 +7 1026.5 999.5
09 18.10 ЮЗ 3-6
{6}
20 км ясно +11.2 +6.8 74 +9 +12 1025.1 998.6
12 18.10 ЮЗ 3-5
{7}
20 км ясно +13.2 +8.0 71 +12 +13 1023.0 996.8
15 18.10 Ю 1-3
{6}
10 км ясно +9.8 +7.3 84 +9 +9 1022.0 995.5 +13.2
18 18.10 З 2-5
{5}
10 км ясно +9.4 +6.1 80 +8 +8 1020.8 994.2
21 18.10 З 2-5
{7}
10 км ясно +8.6 +5.8 83 +7 +7 1020.0 993.4
00 19.10 З 2-5
{6}
10 км ясно +7.2 +5.1 86 +5 +5 1019.3 992.6
03 19.10 З 3-4
{5}
10 км ясно +6.4 +5.5 94 +3 +3 1018.4 991.7 +6.1
06 19.10 ЮЗ 2-5
{6}
10 км ясно +9.3 +7.6 89 +8 +9 1017.7 991.2
09 19.10 ЮЗ 4-7
{10}
10 км 3/0
[Ac trans]
+15.8 +8.4 61 +15 +17 1016.5 990.7
12 19.10 ЮЗ 4-8
{8}
10 км 8/1 600 м
[Cb cap Ac und]
+17.7 +8.6 55 +17 +18 1015.0 989.4
15 19.10 ЮЗ 2-5
{8}
10 км 10/3 600 м
[Cb cap Ac und]
+15.0 +9.4 69 +15 +15 1014.6 988.7 +18.0
18 19.10 З 3-4
{5}
10 км в посл. час ливневой дождь 10/4 600 м
[Cb cap Ac und]
+13.6 +10.5 82 +12 +12 1013.9 987.9
21 19.10 ЮЗ 1-2
{6}
4000 м гроза, ливневой дождь 10/10 300 м
[Cb cap]
+12.0 +11.4 96 +12 +12 1013.7 987.7
00 20.10 С 2-4
{5}
10 км {гроза, ливн. осадки} 10/10 600 м
[Cb cap]
+10.4 +9.0 91 +9 +9 1013.9 987.7
03 20.10 СЗ 2 10 км 10/10 600 м
[Cb cap]
+8.0 +6.7 91 +6 +6 1015.2 988.7 +7.8 8
06 20.10 З 2-4
{5}
10 км ясно +7.7 +6.5 92 +6 +7 1016.2 989.7 +6.4
09 20.10 З 3-6
{7}
20 км 4/4 1000 м
[Sc]
+9.8 +4.0 67 +8 +9 1017.1 990.7
12 20.10 СЗ 3-6
{9}
20 км 5/5 1000 м
[Sc]
+9.0 +1.7 60 +7 +7 1018.3 991.8
15 20.10 СЗ 2-4
{7}
10 км 8/8 600 м
[Sc]
+5.9 +0.5 68 +4 +4 1019.7 992.9 +10.1
18 20.10 СЗ 1-3
{6}
10 км 10/10 600 м
[Sc]
+5.3 +0.4 71 +4 +4 1020.9 993.9
21 20.10 З 1-2
{3}
10 км ясно +2.9 +0.2 82 +1 +1 1021.9 994.7
00 21.10 З 1-2
{3}
10 км ясно +1.1 -0.6 88 -1 -1 1022.6 995.2

 

Местоположение метеостанции Лукоянов (Нижегородская область, Россия): широта 55.03 долгота 44.50 высота над уровнем моря 219 м.

В архиве по умолчанию представлена погода в Лукоянове за последнюю неделю. Архивные данные за месяц целиком и за предыдущие месяцы, начиная с января 2011 года, Вы можете получить, выбрав интересующий диапазон дат из раскрывающегося списка и нажав кнопку "Ввод!".


*Определитесь, кто Вы:
робот инопланетянин человек

Внимание! Время в таблицах - всемирное. Для получения местного времени необходимо прибавить поправку, которая в Лукоянове равна 3 ч.

Смотрите также архив погоды в соседних городах и на ближайших метеорологических станциях:

Погода в Большом Болдино (Нижегородская область, Россия) (52 км)
Погода в Арзамасе (Нижегородская область, Россия) (59 км)
Погода в Краснослободске (Мордовия, Россия) (82 км)
Погода в Сергаче (Нижегородская область, Россия) (84 км)
Погода в Дальнем Константиново (Нижегородская область, Россия) (90 км)
Погода в Темникове (Мордовия, Россия) (93 км)
Погода в Саранске (Мордовия, Россия) (111 км)
Погода в Лысково (Нижегородская область, Россия) (114 км)
Погода в Порецком (Чувашия, Россия) (118 км)
Погода в Инсаре (Мордовия, Россия) (129 км)

Пояснения к столбцам:

Ветер - указаны скорость ветра в м/с - средняя за 10 мин, порывы в срок и между сроками (в фигурных скобках) и направление, откуда дует ветер: С - северный, СВ - северо-восточный, В - восточный, ЮВ - юго-восточный, Ю - южный, ЮЗ - юго-западный, З - западный, СЗ - северо-западный.
Видимость - горизонтальная дальность видимости в метрах или километрах. При видимости от 1 до 10 км при отсутствии осадков обычно наблюдается дымка, при ухудшении видимости до 1 км и менее - туман. В сухую погоду видимость может ухудшаться дымом, пылью или мглою.
Явления - указаны атмосферные явления, наблюдавшиеся в срок или в последний час перед сроком; фигурными скобками обозначены явления, наблюдавшиеся между сроками (за 1-3 часа до срока); квадратными скобками обозначены град или гололедные отложения с указанием их диаметра в мм.
Облачность - указаны через наклонную черту общая и нижняя облачность в баллах и высота нижней границы облаков в метрах; квадратными скобками обозначены формы облаков: Ci - перистые, Cs - перисто-слоистые, Cc - перисто-кучевые, Ac - высококучевые, As - высокослоистые, Sc - слоисто-кучевые, Ns - слоисто-дождевые, Cu - кучевые, Cb - кучево-дождевые. Подробнее классификацию облаков см. в Атласе облаков (PDF).
T - Температура воздуха - температура, измеренная на высоте 2 м над землей.
Td - Температура точки росы - температура, при понижении до которой содержащийся в воздухе водяной пар достигнет насыщения.
f - Относительная влажность воздуха - влажноcть воздуха, измеренная на высоте 2 м над землей.
Te - Эффективная температура - температура, которую ощущает одетый по сезону человек в тени. Характеристика душности погоды. При расчете учитывается влияние влажности воздуха и скорости ветра на теплоощущения человека.
Tes - Эффективная температура на солнце - температура, которую ощущает человек, с поправкой на солнечный нагрев. Характеристика знойности погоды. Зависит от высоты солнца над горизонтом, облачности и скорости ветра. Ночью, в пасмурную погоду, а также при ветре 12 м/с и более поправка равна нулю.
P - Атмосферное давление - приведенное к уровню моря атмосферное давление.
Po - Атмосферное давление - измеренное на уровне метеостанции атмосферное давление.
Tmin - Минимальная температура - минимум температуры воздуха на высоте 2 м над землей.
Tmax - Максимальная температура - максимум температуры воздуха на высоте 2 м над землей.
R - Количество осадков - Количество выпавших осадков за период времени, мм. При наведении курсора мыши на число - период времени, за который выпало указанное количество осадков.
R24 - Количество осадков - Количество выпавших осадков за 24 часа, мм.
S - Снежный покров - Высота снежного покрова, см. При наведении курсора мыши на число - состояние снежного покрова и степень покрытия местности в баллах.